Location: Cluj-Napoca
(46.7712°N, 23.6236°E)
Time: 10:41:45
(UTC+03:00)

ISS - Pass Details

Date: 11 May 2021
Orbit: 417 x 422 km, 51.6° (Epoch: 15 May)

Event Time Altitude Azimuth Distance (km) Brightness Sun altitude
Exits shadow 03:04:21 20° 305° (NW) 1,040 -1.7 -21.3°
Maximum altitude 03:06:08 34° 358° (N) 715 -2.1 -21.2°
Drops below altitude 10° 03:09:16 10° 66° (ENE) 1,506 -0.2 -21.0°
Sets 03:11:29 0° 75° (ENE) 2,372 0.7 -20.8°
